Weather Roundup
Issued by NWS Chicago, IL

Home | Current Version | Previous Version | Graphics & Text | Print | Product List | Glossary On
Versions: 1 2 3 4 5 6 7 8 9 10 11 12 13 14 15 16 17 18 19 20 21 22 23 24 25 26 27 28 29 30 31 32 33 34 35 36 37 38 39 40 41 42 43 44 45 46 47 48 49 50
000
NZUS59 KLOT 272012
HRRLOT

CHICAGO AREA WEATHER ROUNDUP
NATIONAL WEATHER SERVICE CHICAGO/ROMEOVILLE IL
300 PM CDT WED MAY 27 2015

NOTE: "FAIR" INDICATES FEW OR NO CLOUDS BELOW 12,000 FEET WITH NO
SIGNIFICANT WEATHER AND/OR OBSTRUCTIONS TO VISIBILITY.

* THESE STATIONS ARE NOT UNDER NWS QUALITY CONTROL. THEY ALSO MAY NOT
  REPORT WEATHER SUCH AS PRECIPITATION OR FOG.

ILZ005-006-012>014-019>023-272100-
NORTHEAST ILLINOIS

CITY           SKY/WX    TMP DP  RH WIND       PRES   REMARKS
OHARE          CLOUDY    70  57  63 NW15      30.01R
MIDWAY         PTSUNNY   74  57  55 W13G28    30.00R
AURORA         PTSUNNY   74  57  55 NW18G26   30.02R
LANSING*       MOSUNNY   76  54  46 W21G28    30.00S
JOLIET*        PTSUNNY   77  58  51 NW9G22    30.01S
WAUKEGAN       CLOUDY    70  59  68 W8        29.99R
DUPAGE AIRPORT LGT RAIN  68  58  70 NW18G28   30.02R
WHEELING       CLOUDY    65  58  78 W5        30.03R
KANKAKEE*      MOSUNNY   78  61  56 W15G23    30.02S
MORRIS*        MOSUNNY   76  59  55 W17       30.00S
LEWIS AIRPORT* CLOUDY    74  58  56 NW17      30.01S
NORTHERLY IS     N/A     73  53  49 W16         N/A
$$

WIZ051-052-058>065-066-070>072-272100-
SOUTHEAST WISCONSIN

CITY           SKY/WX    TMP DP  RH WIND       PRES   REMARKS
MILWAUKEE      MOSUNNY   72  54  53 N14G21    29.99R
KENOSHA*       CLOUDY    66  59  78 W9        30.00R
RACINE*        CLOUDY    68  57  68 NW8       30.00R
BURLINGTON     MOSUNNY   68  56  63 N13G21    30.01R
WAUKESHA       MOSUNNY   68  55  64 NW13      30.01R
WEST BEND      PTSUNNY   70  52  52 NW7       29.99S
$$

INZ001>003-010>013-019-020-272100-
NORTHWEST INDIANA

CITY           SKY/WX    TMP DP  RH WIND       PRES   REMARKS
GARY*          PTSUNNY   77  57  50 W14G29    30.00S
MICHIGAN CITY* NOT AVBL
RENSSELAER*    NOT AVBL
VALPARAISO     PTSUNNY   78  57  48 W18       30.00S
$$

LMZ740>746-272100-
SOUTHERN LAKE MICHIGAN

STATION/POSITION TIME  SKY/WX   TEMP WIND        PRES    VSBY
                                AIR  DIR/SP/G
                 (UTC)          (F)  (DEG/KT/KT) (MB)    (MI)
HARRISON CRIB    1900            69  250/ 11/ 16   N/A
BURNHAM HARBOR   2000            73  300/  9/ 16   N/A
CALUMET HARBOR   1900            75  240/  7/ 13   N/A
BURNS HARBOR     1900            60  290/ 12/ 16 1016.3
MICHIGAN CITY    1900            61  270/ 16/ 19   N/A
$$

ABBREVIATIONS USED IN REMARKS
   TC - TEMPERATURE IN CELSIUS
  WCI - WIND CHILL INDEX
   HX - HEAT INDEX
  VSB - VISIBILITY
$$


USA.gov is the U.S. government's official web portal to all federal, state and local government web resources and services.